Time,TemperatureF,DewpointF,PressureIn,WindDirection,WindDirectionDegrees,WindSpeedMPH,WindSpeedGustMPH,Humidity,HourlyPrecipIn,Conditions,Clouds,dailyrainin,SoftwareType,DateUTC
2013-06-09 00:01:00,58.9,54.1,30.04,NE,53,0.0,0.0,84,0.00,,,0.00,Wunderground v.1.15,2013-06-09 04:01:00,
2013-06-09 00:02:00,58.9,54.1,30.04,NE,53,0.0,0.0,84,0.00,,,0.00,Wunderground v.1.15,2013-06-09 04:02:00,
2013-06-09 00:04:00,58.7,54.2,30.04,NE,52,0.0,0.0,85,0.00,,,0.00,Wunderground v.1.15,2013-06-09 04:04:00,
2013-06-09 00:06:00,58.7,54.2,30.04,NE,52,0.0,0.0,85,0.00,,,0.00,Wunderground v.1.15,2013-06-09 04:06:00,
2013-06-09 00:11:00,58.6,54.1,30.04,NE,52,0.0,0.0,85,0.00,,,0.00,Wunderground v.1.15,2013-06-09 04:11:00,
2013-06-09 00:17:00,58.5,54.0,30.04,NE,52,0.0,0.0,85,0.00,,,0.00,Wunderground v.1.15,2013-06-09 04:17:00,
2013-06-09 00:22:00,58.5,54.3,30.04,NE,52,0.0,0.0,86,0.00,,,0.00,Wunderground v.1.15,2013-06-09 04:22:00,
2013-06-09 00:28:00,58.5,54.3,30.04,ESE,117,0.0,0.0,86,0.00,,,0.00,Wunderground v.1.15,2013-06-09 04:28:00,
2013-06-09 00:33:00,58.5,54.3,30.04,ESE,117,0.0,0.0,86,0.00,,,0.00,Wunderground v.1.15,2013-06-09 04:33:00,
2013-06-09 00:39:00,58.5,54.3,30.04,SE,131,0.0,0.0,86,0.00,,,0.00,Wunderground v.1.15,2013-06-09 04:39:00,
2013-06-09 00:45:00,58.5,54.3,30.04,SE,131,0.0,0.0,86,0.00,,,0.00,Wunderground v.1.15,2013-06-09 04:45:00,
2013-06-09 00:51:00,58.3,54.1,30.04,SE,131,0.0,0.0,86,0.00,,,0.00,Wunderground v.1.15,2013-06-09 04:51:00,
2013-06-09 00:56:00,58.1,53.9,30.04,SE,131,0.0,0.0,86,0.00,,,0.00,Wunderground v.1.15,2013-06-09 04:56:00,
2013-06-09 01:02:00,57.9,54.1,30.04,SE,131,0.0,0.0,87,0.00,,,0.00,Wunderground v.1.15,2013-06-09 05:02:00,
2013-06-09 01:08:00,57.7,53.9,30.05,SE,131,0.0,0.0,87,0.00,,,0.00,Wunderground v.1.15,2013-06-09 05:08:00,
2013-06-09 01:13:00,57.6,53.8,30.05,SE,131,0.0,0.0,87,0.00,,,0.00,Wunderground v.1.15,2013-06-09 05:13:00,
2013-06-09 01:18:00,57.5,54.0,30.05,SE,131,0.0,0.0,88,0.00,,,0.00,Wunderground v.1.15,2013-06-09 05:18:00,
2013-06-09 01:24:00,57.4,53.9,30.05,SE,131,0.0,0.0,88,0.00,,,0.00,Wunderground v.1.15,2013-06-09 05:24:00,
2013-06-09 01:29:00,57.4,54.2,30.05,SE,131,0.0,0.0,89,0.00,,,0.00,Wunderground v.1.15,2013-06-09 05:29:00,
2013-06-09 01:35:00,57.4,54.2,30.05,SE,131,0.0,0.0,89,0.00,,,0.00,Wunderground v.1.15,2013-06-09 05:35:00,
2013-06-09 01:41:00,57.4,54.2,30.05,SE,131,0.0,0.0,89,0.00,,,0.00,Wunderground v.1.15,2013-06-09 05:41:00,
2013-06-09 01:47:00,57.4,54.2,30.05,SE,131,0.0,0.0,89,0.00,,,0.00,Wunderground v.1.15,2013-06-09 05:47:00,
2013-06-09 01:52:00,57.4,54.2,30.05,SE,131,0.0,0.0,89,0.00,,,0.00,Wunderground v.1.15,2013-06-09 05:52:00,
2013-06-09 01:58:00,57.4,54.2,30.05,SE,131,0.0,0.0,89,0.00,,,0.00,Wunderground v.1.15,2013-06-09 05:58:00,
2013-06-09 02:03:00,57.4,54.2,30.05,SE,130,0.0,0.0,89,0.00,,,0.00,Wunderground v.1.15,2013-06-09 06:03:00,
2013-06-09 02:08:00,57.3,54.1,30.05,SE,132,0.0,0.0,89,0.00,,,0.00,Wunderground v.1.15,2013-06-09 06:08:00,
2013-06-09 02:14:00,57.3,54.1,30.05,SE,131,0.0,0.0,89,0.00,,,0.00,Wunderground v.1.15,2013-06-09 06:14:00,
2013-06-09 02:19:00,57.2,53.7,30.05,SE,131,0.0,0.0,88,0.00,,,0.00,Wunderground v.1.15,2013-06-09 06:19:00,
2013-06-09 02:25:00,57.3,54.1,30.05,SE,131,0.0,0.0,89,0.00,,,0.00,Wunderground v.1.15,2013-06-09 06:25:00,
2013-06-09 02:30:00,57.3,54.1,30.05,SE,131,0.0,0.0,89,0.00,,,0.00,Wunderground v.1.15,2013-06-09 06:30:00,
2013-06-09 02:35:00,57.4,53.9,30.05,SE,131,0.0,0.0,88,0.00,,,0.00,Wunderground v.1.15,2013-06-09 06:35:00,
2013-06-09 02:40:00,57.4,53.9,30.05,SE,131,0.0,0.0,88,0.00,,,0.00,Wunderground v.1.15,2013-06-09 06:40:00,
2013-06-09 02:45:00,57.4,53.9,30.05,SE,131,0.0,0.0,88,0.00,,,0.00,Wunderground v.1.15,2013-06-09 06:45:00,
2013-06-09 02:51:00,57.4,53.9,30.05,SE,131,0.0,0.0,88,0.00,,,0.00,Wunderground v.1.15,2013-06-09 06:51:00,
2013-06-09 02:57:00,57.4,53.9,30.05,SE,131,0.0,0.0,88,0.00,,,0.00,Wunderground v.1.15,2013-06-09 06:57:00,
2013-06-09 03:03:00,57.5,54.0,30.05,SE,131,0.0,0.0,88,0.00,,,0.00,Wunderground v.1.15,2013-06-09 07:03:00,
2013-06-09 03:08:00,57.5,54.0,30.06,SE,126,0.0,0.0,88,0.00,,,0.00,Wunderground v.1.15,2013-06-09 07:08:00,
2013-06-09 03:14:00,57.7,54.2,30.06,SE,126,0.0,0.0,88,0.00,,,0.00,Wunderground v.1.15,2013-06-09 07:14:00,
2013-06-09 03:19:00,57.8,54.3,30.06,SE,132,0.0,0.0,88,0.00,,,0.00,Wunderground v.1.15,2013-06-09 07:19:00,
2013-06-09 03:25:00,57.9,54.1,30.06,SE,132,0.0,0.0,87,0.00,,,0.00,Wunderground v.1.15,2013-06-09 07:25:00,
2013-06-09 03:30:00,58.1,54.2,30.06,SE,132,0.0,0.0,87,0.00,,,0.00,Wunderground v.1.15,2013-06-09 07:30:00,
2013-06-09 03:36:00,58.2,54.3,30.06,SE,142,0.0,0.0,87,0.00,,,0.00,Wunderground v.1.15,2013-06-09 07:36:00,
2013-06-09 03:42:00,58.3,54.4,30.06,ESE,121,0.0,0.0,87,0.00,,,0.00,Wunderground v.1.15,2013-06-09 07:42:00,
2013-06-09 03:48:00,58.3,54.1,30.06,ESE,121,0.0,0.0,86,0.00,,,0.00,Wunderground v.1.15,2013-06-09 07:48:00,
2013-06-09 03:53:00,58.4,54.2,30.06,ESE,122,0.0,0.0,86,0.00,,,0.00,Wunderground v.1.15,2013-06-09 07:53:00,
2013-06-09 03:58:00,58.5,54.3,30.06,ESE,121,0.0,0.0,86,0.00,,,0.00,Wunderground v.1.15,2013-06-09 07:58:00,
2013-06-09 04:03:00,58.5,54.3,30.06,East,92,0.0,1.0,86,0.00,,,0.00,Wunderground v.1.15,2013-06-09 08:03:00,
2013-06-09 04:09:00,58.6,54.4,30.06,ENE,59,0.0,1.0,86,0.00,,,0.00,Wunderground v.1.15,2013-06-09 08:09:00,
2013-06-09 04:14:00,58.6,54.4,30.06,ENE,63,0.0,0.0,86,0.00,,,0.00,Wunderground v.1.15,2013-06-09 08:14:00,
2013-06-09 04:20:00,58.6,54.4,30.05,South,169,0.0,2.0,86,0.00,,,0.00,Wunderground v.1.15,2013-06-09 08:20:00,
2013-06-09 04:26:00,58.7,54.2,30.06,South,169,0.0,2.0,85,0.00,,,0.00,Wunderground v.1.15,2013-06-09 08:26:00,
2013-06-09 04:31:00,58.7,54.2,30.06,ESE,123,0.0,0.0,85,0.00,,,0.00,Wunderground v.1.15,2013-06-09 08:31:00,
2013-06-09 04:36:00,58.7,54.2,30.05,SSE,152,0.0,3.0,85,0.00,,,0.00,Wunderground v.1.15,2013-06-09 08:36:00,
2013-06-09 04:41:00,58.6,54.1,30.05,East,100,0.0,2.0,85,0.00,,,0.00,Wunderground v.1.15,2013-06-09 08:41:00,
2013-06-09 04:46:00,58.6,54.1,30.05,East,101,0.0,2.0,85,0.00,,,0.00,Wunderground v.1.15,2013-06-09 08:46:00,
2013-06-09 04:52:00,58.5,54.0,30.05,ESE,108,0.0,0.0,85,0.00,,,0.00,Wunderground v.1.15,2013-06-09 08:52:00,
2013-06-09 04:57:00,58.4,53.9,30.06,ESE,108,0.0,0.0,85,0.00,,,0.00,Wunderground v.1.15,2013-06-09 08:57:00,
2013-06-09 05:03:00,58.2,53.7,30.06,ESE,108,0.0,0.0,85,0.00,,,0.00,Wunderground v.1.15,2013-06-09 09:03:00,
2013-06-09 05:09:00,58.1,53.6,30.05,ESE,108,0.0,0.0,85,0.00,,,0.00,Wunderground v.1.15,2013-06-09 09:09:00,
2013-06-09 05:14:00,58.0,53.8,30.05,ESE,107,0.0,0.0,86,0.00,,,0.00,Wunderground v.1.15,2013-06-09 09:14:00,
2013-06-09 05:20:00,57.8,53.6,30.06,ESE,108,0.0,0.0,86,0.00,,,0.00,Wunderground v.1.15,2013-06-09 09:20:00,
2013-06-09 05:26:00,57.7,53.5,30.06,ESE,108,0.0,0.0,86,0.00,,,0.00,Wunderground v.1.15,2013-06-09 09:26:00,
2013-06-09 05:31:00,57.7,53.5,30.05,SSE,164,0.0,0.0,86,0.00,,,0.00,Wunderground v.1.15,2013-06-09 09:31:00,
2013-06-09 05:37:00,57.6,53.8,30.06,WSW,239,0.0,0.0,87,0.00,,,0.00,Wunderground v.1.15,2013-06-09 09:37:00,
2013-06-09 05:43:00,57.5,53.7,30.06,ESE,104,0.0,0.0,87,0.00,,,0.00,Wunderground v.1.15,2013-06-09 09:43:00,
2013-06-09 05:49:00,57.5,53.7,30.06,SSW,197,0.0,0.0,87,0.00,,,0.00,Wunderground v.1.15,2013-06-09 09:49:00,
2013-06-09 05:54:00,57.5,53.7,30.06,ESE,121,0.0,0.0,87,0.00,,,0.00,Wunderground v.1.15,2013-06-09 09:54:00,
2013-06-09 05:59:00,57.6,53.8,30.06,East,91,0.0,0.0,87,0.00,,,0.00,Wunderground v.1.15,2013-06-09 09:59:00,
2013-06-09 06:05:00,57.6,53.8,30.06,East,97,0.0,0.0,87,0.00,,,0.00,Wunderground v.1.15,2013-06-09 10:05:00,
2013-06-09 06:10:00,57.7,53.9,30.07,ESE,117,0.0,0.0,87,0.00,,,0.00,Wunderground v.1.15,2013-06-09 10:10:00,
2013-06-09 06:16:00,57.8,54.0,30.06,ENE,69,0.0,2.0,87,0.00,,,0.00,Wunderground v.1.15,2013-06-09 10:16:00,
2013-06-09 06:22:00,57.9,54.1,30.07,ENE,63,0.0,3.0,87,0.00,,,0.00,Wunderground v.1.15,2013-06-09 10:22:00,
2013-06-09 06:27:00,58.1,54.2,30.07,ENE,65,0.0,3.0,87,0.00,,,0.00,Wunderground v.1.15,2013-06-09 10:27:00,
2013-06-09 06:33:00,58.2,54.3,30.07,ENE,70,0.0,0.0,87,0.00,,,0.00,Wunderground v.1.15,2013-06-09 10:33:00,
2013-06-09 06:38:00,58.2,54.3,30.07,ENE,70,0.0,0.0,87,0.00,,,0.00,Wunderground v.1.15,2013-06-09 10:38:00,
2013-06-09 06:43:00,58.3,54.4,30.07,ESE,114,0.0,1.0,87,0.00,,,0.00,Wunderground v.1.15,2013-06-09 10:43:00,
2013-06-09 06:49:00,58.4,54.5,30.07,SE,130,0.0,1.0,87,0.00,,,0.00,Wunderground v.1.15,2013-06-09 10:49:00,
2013-06-09 06:54:00,58.6,54.4,30.07,East,90,0.0,0.0,86,0.00,,,0.00,Wunderground v.1.15,2013-06-09 10:54:00,
2013-06-09 07:00:00,58.8,54.6,30.07,SE,130,0.0,1.0,86,0.00,,,0.00,Wunderground v.1.15,2013-06-09 11:00:00,
2013-06-09 07:06:00,59.0,54.8,30.07,SSE,161,0.0,1.0,86,0.00,,,0.00,Wunderground v.1.15,2013-06-09 11:06:00,
2013-06-09 07:12:00,59.2,54.7,30.07,SE,132,0.0,1.0,85,0.00,,,0.00,Wunderground v.1.15,2013-06-09 11:12:00,
2013-06-09 07:18:00,59.6,55.1,30.07,East,84,0.0,1.0,85,0.00,,,0.00,Wunderground v.1.15,2013-06-09 11:18:00,
2013-06-09 07:23:00,60.0,55.5,30.07,East,82,0.0,0.0,85,0.00,,,0.00,Wunderground v.1.15,2013-06-09 11:23:00,
2013-06-09 07:29:00,60.5,55.3,30.07,East,91,1.0,3.0,83,0.00,,,0.00,Wunderground v.1.15,2013-06-09 11:29:00,
2013-06-09 07:34:00,60.6,55.4,30.07,ENE,73,1.0,3.0,83,0.00,,,0.00,Wunderground v.1.15,2013-06-09 11:34:00,
2013-06-09 07:40:00,60.8,55.3,30.07,East,86,1.0,1.0,82,0.00,,,0.00,Wunderground v.1.15,2013-06-09 11:40:00,
2013-06-09 07:45:00,60.9,55.4,30.08,ESE,118,1.0,4.0,82,0.00,,,0.00,Wunderground v.1.15,2013-06-09 11:45:00,
2013-06-09 07:51:00,61.2,55.7,30.07,ENE,78,1.0,3.0,82,0.00,,,0.00,Wunderground v.1.15,2013-06-09 11:51:00,
2013-06-09 07:56:00,61.5,55.6,30.07,SE,127,2.0,3.0,81,0.00,,,0.00,Wunderground v.1.15,2013-06-09 11:56:00,
2013-06-09 08:01:00,61.8,55.6,30.07,East,89,3.0,4.0,80,0.00,,,0.00,Wunderground v.1.15,2013-06-09 12:01:00,
2013-06-09 08:07:00,62.1,55.5,30.07,East,84,2.0,4.0,79,0.00,,,0.00,Wunderground v.1.15,2013-06-09 12:07:00,
2013-06-09 08:12:00,62.4,55.8,30.07,East,99,1.0,5.0,79,0.00,,,0.00,Wunderground v.1.15,2013-06-09 12:12:00,
2013-06-09 08:18:00,62.6,55.6,30.07,ESE,117,1.0,5.0,78,0.00,,,0.00,Wunderground v.1.15,2013-06-09 12:18:00,
2013-06-09 08:23:00,62.8,55.5,30.07,ENE,71,2.0,5.0,77,0.00,,,0.00,Wunderground v.1.15,2013-06-09 12:23:00,
2013-06-09 08:29:00,63.1,55.8,30.07,East,94,2.0,6.0,77,0.00,,,0.00,Wunderground v.1.15,2013-06-09 12:29:00,
2013-06-09 08:34:00,63.5,55.8,30.08,ESE,103,3.0,7.0,76,0.00,,,0.00,Wunderground v.1.15,2013-06-09 12:34:00,
2013-06-09 08:40:00,64.0,55.9,30.07,ENE,60,3.0,3.0,75,0.00,,,0.00,Wunderground v.1.15,2013-06-09 12:40:00,
2013-06-09 08:45:00,64.7,56.6,30.07,East,92,3.0,3.0,75,0.00,,,0.00,Wunderground v.1.15,2013-06-09 12:45:00,
2013-06-09 08:50:00,65.2,55.9,30.07,ESE,107,3.0,3.0,72,0.00,,,0.00,Wunderground v.1.15,2013-06-09 12:50:00,
2013-06-09 08:56:00,65.6,55.5,30.07,East,96,3.0,10.0,70,0.00,,,0.00,Wunderground v.1.15,2013-06-09 12:56:00,
2013-06-09 09:02:00,65.9,56.2,30.07,East,96,4.0,4.0,71,0.00,,,0.00,Wunderground v.1.15,2013-06-09 13:02:00,
2013-06-09 09:07:00,66.1,55.6,30.07,East,96,3.0,8.0,69,0.00,,,0.00,Wunderground v.1.15,2013-06-09 13:07:00,
2013-06-09 09:13:00,66.2,55.7,30.07,ESE,113,4.0,7.0,69,0.00,,,0.00,Wunderground v.1.15,2013-06-09 13:13:00,
2013-06-09 09:18:00,66.6,56.1,30.08,West,265,4.0,7.0,69,0.00,,,0.00,Wunderground v.1.15,2013-06-09 13:18:00,
2013-06-09 09:24:00,67.4,57.3,30.08,East,98,2.0,3.0,70,0.00,,,0.00,Wunderground v.1.15,2013-06-09 13:24:00,
2013-06-09 09:30:00,68.1,56.7,30.07,SW,214,2.0,2.0,67,0.00,,,0.00,Wunderground v.1.15,2013-06-09 13:30:00,
2013-06-09 09:35:00,68.3,56.5,30.07,SE,138,3.0,7.0,66,0.00,,,0.00,Wunderground v.1.15,2013-06-09 13:35:00,
2013-06-09 09:41:00,68.6,57.2,30.08,West,261,3.0,3.0,67,0.00,,,0.00,Wunderground v.1.15,2013-06-09 13:41:00,
2013-06-09 09:47:00,69.2,57.4,30.07,WSW,239,1.0,4.0,66,0.00,,,0.00,Wunderground v.1.15,2013-06-09 13:47:00,
2013-06-09 09:52:00,69.4,57.5,30.07,NNE,13,2.0,2.0,66,0.00,,,0.00,Wunderground v.1.15,2013-06-09 13:52:00,
2013-06-09 09:58:00,69.1,57.3,30.07,ENE,74,3.0,8.0,66,0.00,,,0.00,Wunderground v.1.15,2013-06-09 13:58:00,
2013-06-09 10:03:00,68.8,57.4,30.07,ESE,112,4.0,5.0,67,0.00,,,0.00,Wunderground v.1.15,2013-06-09 14:03:00,
2013-06-09 10:08:00,69.3,58.3,30.07,East,90,3.0,5.0,68,0.00,,,0.00,Wunderground v.1.15,2013-06-09 14:08:00,
2013-06-09 10:14:00,70.2,58.3,30.07,South,177,2.0,6.0,66,0.00,,,0.00,Wunderground v.1.15,2013-06-09 14:14:00,
2013-06-09 10:20:00,70.5,57.7,30.06,ESE,116,3.0,3.0,64,0.00,,,0.00,Wunderground v.1.15,2013-06-09 14:20:00,
2013-06-09 10:25:00,70.3,58.0,30.06,SE,144,3.0,8.0,65,0.00,,,0.00,Wunderground v.1.15,2013-06-09 14:25:00,
2013-06-09 10:31:00,70.1,58.2,30.06,SSE,149,3.0,3.0,66,0.00,,,0.00,Wunderground v.1.15,2013-06-09 14:31:00,
2013-06-09 10:37:00,70.2,58.3,30.06,ESE,107,2.0,4.0,66,0.00,,,0.00,Wunderground v.1.15,2013-06-09 14:37:00,
2013-06-09 10:42:00,70.3,58.4,30.06,East,100,2.0,5.0,66,0.00,,,0.00,Wunderground v.1.15,2013-06-09 14:42:00,
2013-06-09 10:47:00,70.6,58.7,30.05,SSE,151,3.0,5.0,66,0.00,,,0.00,Wunderground v.1.15,2013-06-09 14:47:00,
2013-06-09 10:53:00,71.2,58.8,30.05,SE,146,3.0,7.0,65,0.00,,,0.00,Wunderground v.1.15,2013-06-09 14:53:00,
2013-06-09 10:58:00,71.3,58.9,30.05,ENE,63,3.0,7.0,65,0.00,,,0.00,Wunderground v.1.15,2013-06-09 14:58:00,
2013-06-09 11:04:00,71.6,58.8,30.05,East,98,2.0,7.0,64,0.00,,,0.00,Wunderground v.1.15,2013-06-09 15:04:00,
2013-06-09 11:09:00,71.5,58.7,30.05,SE,135,3.0,7.0,64,0.00,,,0.00,Wunderground v.1.15,2013-06-09 15:09:00,
2013-06-09 11:15:00,71.7,59.3,30.05,East,92,3.0,6.0,65,0.00,,,0.00,Wunderground v.1.15,2013-06-09 15:15:00,
2013-06-09 11:20:00,72.2,58.9,30.06,East,79,3.0,6.0,63,0.00,,,0.00,Wunderground v.1.15,2013-06-09 15:20:00,
2013-06-09 11:26:00,72.4,59.1,30.06,SSW,201,3.0,6.0,63,0.00,,,0.00,Wunderground v.1.15,2013-06-09 15:26:00,
2013-06-09 11:32:00,72.2,58.9,30.06,East,81,3.0,3.0,63,0.00,,,0.00,Wunderground v.1.15,2013-06-09 15:32:00,
2013-06-09 11:38:00,72.2,58.9,30.06,ESE,123,1.0,4.0,63,0.00,,,0.00,Wunderground v.1.15,2013-06-09 15:38:00,
2013-06-09 11:43:00,72.1,58.8,30.06,ESE,109,2.0,3.0,63,0.00,,,0.00,Wunderground v.1.15,2013-06-09 15:43:00,
2013-06-09 11:49:00,71.7,58.9,30.06,ENE,75,2.0,6.0,64,0.00,,,0.00,Wunderground v.1.15,2013-06-09 15:49:00,
2013-06-09 11:54:00,71.8,59.0,30.06,ESE,111,2.0,8.0,64,0.00,,,0.00,Wunderground v.1.15,2013-06-09 15:54:00,
2013-06-09 11:59:00,71.7,58.4,30.06,SSE,148,3.0,8.0,63,0.00,,,0.00,Wunderground v.1.15,2013-06-09 15:59:00,
2013-06-09 12:04:00,71.6,58.8,30.06,ESE,111,4.0,7.0,64,0.00,,,0.00,Wunderground v.1.15,2013-06-09 16:04:00,
2013-06-09 12:10:00,71.9,59.5,30.06,SE,136,4.0,4.0,65,0.00,,,0.00,Wunderground v.1.15,2013-06-09 16:10:00,
2013-06-09 12:15:00,72.5,59.2,30.06,ESE,103,3.0,5.0,63,0.00,,,0.00,Wunderground v.1.15,2013-06-09 16:15:00,
2013-06-09 12:21:00,73.0,59.2,30.06,East,94,4.0,9.0,62,0.00,,,0.00,Wunderground v.1.15,2013-06-09 16:21:00,
2013-06-09 12:26:00,72.7,58.9,30.05,SSE,161,5.0,9.0,62,0.00,,,0.00,Wunderground v.1.15,2013-06-09 16:26:00,
2013-06-09 12:32:00,72.7,59.4,30.05,ESE,102,4.0,6.0,63,0.00,,,0.00,Wunderground v.1.15,2013-06-09 16:32:00,
2013-06-09 12:38:00,72.6,58.4,30.05,ESE,122,4.0,11.0,61,0.00,,,0.00,Wunderground v.1.15,2013-06-09 16:38:00,
2013-06-09 12:43:00,72.7,59.4,30.05,ESE,104,3.0,5.0,63,0.00,,,0.00,Wunderground v.1.15,2013-06-09 16:43:00,
2013-06-09 12:49:00,73.1,59.8,30.05,SSW,196,2.0,5.0,63,0.00,,,0.00,Wunderground v.1.15,2013-06-09 16:49:00,
2013-06-09 12:54:00,72.6,58.8,30.05,SE,126,4.0,11.0,62,0.00,,,0.00,Wunderground v.1.15,2013-06-09 16:54:00,
2013-06-09 13:00:00,72.1,58.8,30.04,ESE,115,4.0,4.0,63,0.00,,,0.00,Wunderground v.1.15,2013-06-09 17:00:00,
2013-06-09 13:06:00,71.7,58.4,30.04,East,80,4.0,11.0,63,0.00,,,0.00,Wunderground v.1.15,2013-06-09 17:06:00,
2013-06-09 13:12:00,71.9,59.1,30.05,SE,141,3.0,3.0,64,0.00,,,0.00,Wunderground v.1.15,2013-06-09 17:12:00,
2013-06-09 13:18:00,72.4,59.1,30.04,SSE,153,2.0,6.0,63,0.00,,,0.00,Wunderground v.1.15,2013-06-09 17:18:00,
2013-06-09 13:23:00,72.6,59.3,30.04,ENE,59,2.0,4.0,63,0.00,,,0.00,Wunderground v.1.15,2013-06-09 17:23:00,
2013-06-09 13:29:00,72.7,59.8,30.04,SW,217,2.0,4.0,64,0.00,,,0.00,Wunderground v.1.15,2013-06-09 17:29:00,
2013-06-09 13:35:00,72.8,59.5,30.03,ESE,109,3.0,7.0,63,0.00,,,0.00,Wunderground v.1.15,2013-06-09 17:35:00,
2013-06-09 13:40:00,72.6,58.8,30.03,ENE,76,5.0,5.0,62,0.00,,,0.00,Wunderground v.1.15,2013-06-09 17:40:00,
2013-06-09 13:46:00,72.7,60.3,30.03,East,88,4.0,5.0,65,0.00,,,0.00,Wunderground v.1.15,2013-06-09 17:46:00,
2013-06-09 13:51:00,73.0,58.8,30.03,ESE,110,3.0,7.0,61,0.00,,,0.00,Wunderground v.1.15,2013-06-09 17:51:00,
2013-06-09 13:57:00,72.8,58.6,30.03,SE,146,4.0,8.0,61,0.00,,,0.00,Wunderground v.1.15,2013-06-09 17:57:00,
2013-06-09 14:02:00,72.8,58.6,30.03,SE,146,4.0,7.0,61,0.00,,,0.00,Wunderground v.1.15,2013-06-09 18:02:00,
2013-06-09 14:08:00,72.6,58.8,30.03,ENE,70,3.0,7.0,62,0.00,,,0.00,Wunderground v.1.15,2013-06-09 18:08:00,
2013-06-09 14:13:00,72.6,57.9,30.03,South,181,4.0,8.0,60,0.00,,,0.00,Wunderground v.1.15,2013-06-09 18:13:00,
2013-06-09 14:19:00,72.6,57.9,30.03,East,88,5.0,9.0,60,0.00,,,0.00,Wunderground v.1.15,2013-06-09 18:19:00,
2013-06-09 14:24:00,72.7,58.5,30.03,East,98,3.0,5.0,61,0.00,,,0.00,Wunderground v.1.15,2013-06-09 18:24:00,
2013-06-09 14:30:00,72.8,58.6,30.03,East,89,2.0,3.0,61,0.00,,,0.00,Wunderground v.1.15,2013-06-09 18:30:00,
2013-06-09 14:36:00,72.9,58.2,30.02,NE,34,2.0,8.0,60,0.00,,,0.00,Wunderground v.1.15,2013-06-09 18:36:00,
2013-06-09 14:41:00,72.9,58.7,30.02,NE,39,4.0,8.0,61,0.00,,,0.00,Wunderground v.1.15,2013-06-09 18:41:00,
2013-06-09 14:47:00,72.6,57.9,30.02,SE,126,5.0,10.0,60,0.00,,,0.00,Wunderground v.1.15,2013-06-09 18:47:00,
2013-06-09 14:53:00,72.5,58.3,30.02,ESE,106,4.0,5.0,61,0.00,,,0.00,Wunderground v.1.15,2013-06-09 18:53:00,
2013-06-09 14:58:00,72.4,57.7,30.02,ENE,78,3.0,8.0,60,0.00,,,0.00,Wunderground v.1.15,2013-06-09 18:58:00,
2013-06-09 15:03:00,72.2,57.5,30.02,East,80,4.0,7.0,60,0.00,,,0.00,Wunderground v.1.15,2013-06-09 19:03:00,
2013-06-09 15:09:00,72.1,57.4,30.02,NE,44,4.0,7.0,60,0.00,,,0.00,Wunderground v.1.15,2013-06-09 19:09:00,
2013-06-09 15:15:00,72.1,57.4,30.01,SSE,166,4.0,6.0,60,0.00,,,0.00,Wunderground v.1.15,2013-06-09 19:15:00,
2013-06-09 15:20:00,71.9,57.3,30.01,ESE,111,3.0,3.0,60,0.00,,,0.00,Wunderground v.1.15,2013-06-09 19:20:00,
2013-06-09 15:26:00,71.5,57.8,30.01,East,81,3.0,6.0,62,0.00,,,0.00,Wunderground v.1.15,2013-06-09 19:26:00,
2013-06-09 15:32:00,71.5,57.8,30.01,ENE,64,4.0,7.0,62,0.00,,,0.00,Wunderground v.1.15,2013-06-09 19:32:00,
2013-06-09 15:37:00,71.7,58.0,30.00,ESE,102,4.0,9.0,62,0.00,,,0.00,Wunderground v.1.15,2013-06-09 19:37:00,
2013-06-09 15:42:00,72.2,58.5,30.00,ENE,75,4.0,7.0,62,0.00,,,0.00,Wunderground v.1.15,2013-06-09 19:42:00,
2013-06-09 15:48:00,72.7,58.5,30.00,NNE,14,5.0,10.0,61,0.00,,,0.00,Wunderground v.1.15,2013-06-09 19:48:00,
2013-06-09 15:53:00,73.3,58.6,30.00,NE,55,4.0,8.0,60,0.00,,,0.00,Wunderground v.1.15,2013-06-09 19:53:00,
2013-06-09 15:59:00,73.2,57.5,29.99,SE,137,4.0,8.0,58,0.00,,,0.00,Wunderground v.1.15,2013-06-09 19:59:00,
2013-06-09 16:05:00,73.0,57.8,29.99,SE,133,5.0,8.0,59,0.00,,,0.00,Wunderground v.1.15,2013-06-09 20:05:00,
2013-06-09 16:10:00,72.9,57.3,29.99,East,83,5.0,5.0,58,0.00,,,0.00,Wunderground v.1.15,2013-06-09 20:10:00,
2013-06-09 16:16:00,72.8,57.2,29.99,East,81,5.0,7.0,58,0.00,,,0.00,Wunderground v.1.15,2013-06-09 20:16:00,
2013-06-09 16:22:00,73.0,57.8,29.99,SE,133,4.0,5.0,59,0.00,,,0.00,Wunderground v.1.15,2013-06-09 20:22:00,
2013-06-09 16:27:00,73.0,57.8,29.98,ENE,75,5.0,8.0,59,0.00,,,0.00,Wunderground v.1.15,2013-06-09 20:27:00,
2013-06-09 16:33:00,72.9,57.7,29.98,ENE,74,5.0,5.0,59,0.00,,,0.00,Wunderground v.1.15,2013-06-09 20:33:00,
2013-06-09 16:38:00,73.0,57.3,29.98,ESE,117,5.0,14.0,58,0.00,,,0.00,Wunderground v.1.15,2013-06-09 20:38:00,
2013-06-09 16:44:00,72.8,56.7,29.97,ENE,61,6.0,10.0,57,0.00,,,0.00,Wunderground v.1.15,2013-06-09 20:44:00,
2013-06-09 16:50:00,72.7,57.1,29.97,East,93,7.0,7.0,58,0.00,,,0.00,Wunderground v.1.15,2013-06-09 20:50:00,
2013-06-09 16:55:00,72.7,57.5,29.97,SSE,163,6.0,7.0,59,0.00,,,0.00,Wunderground v.1.15,2013-06-09 20:55:00,
2013-06-09 17:00:00,72.5,57.4,29.97,ESE,106,5.0,9.0,59,0.00,,,0.00,Wunderground v.1.15,2013-06-09 21:00:00,
2013-06-09 17:06:00,72.1,56.5,29.97,East,101,6.0,9.0,58,0.00,,,0.00,Wunderground v.1.15,2013-06-09 21:06:00,
2013-06-09 17:11:00,72.0,56.9,29.97,East,86,6.0,8.0,59,0.00,,,0.00,Wunderground v.1.15,2013-06-09 21:11:00,
2013-06-09 17:17:00,72.5,57.4,29.97,SE,139,5.0,8.0,59,0.00,,,0.00,Wunderground v.1.15,2013-06-09 21:17:00,
2013-06-09 17:22:00,72.9,57.7,29.97,ENE,57,4.0,10.0,59,0.00,,,0.00,Wunderground v.1.15,2013-06-09 21:22:00,
2013-06-09 17:28:00,72.8,57.2,29.97,East,93,6.0,11.0,58,0.00,,,0.00,Wunderground v.1.15,2013-06-09 21:28:00,
2013-06-09 17:34:00,72.8,57.2,29.97,ENE,74,6.0,8.0,58,0.00,,,0.00,Wunderground v.1.15,2013-06-09 21:34:00,
2013-06-09 17:39:00,73.0,56.4,29.97,SE,127,5.0,8.0,56,0.00,,,0.00,Wunderground v.1.15,2013-06-09 21:39:00,
2013-06-09 17:45:00,72.8,56.7,29.97,NW,310,5.0,8.0,57,0.00,,,0.00,Wunderground v.1.15,2013-06-09 21:45:00,
2013-06-09 17:51:00,72.5,56.4,29.97,SE,140,4.0,6.0,57,0.00,,,0.00,Wunderground v.1.15,2013-06-09 21:51:00,
2013-06-09 17:57:00,72.4,56.3,29.96,ESE,121,6.0,13.0,57,0.00,,,0.00,Wunderground v.1.15,2013-06-09 21:57:00,
2013-06-09 18:03:00,72.3,56.2,29.96,ESE,121,6.0,8.0,57,0.00,,,0.00,Wunderground v.1.15,2013-06-09 22:03:00,
2013-06-09 18:08:00,72.3,56.7,29.96,NE,47,5.0,9.0,58,0.00,,,0.00,Wunderground v.1.15,2013-06-09 22:08:00,
2013-06-09 18:14:00,72.4,56.8,29.96,East,94,4.0,15.0,58,0.00,,,0.00,Wunderground v.1.15,2013-06-09 22:14:00,
2013-06-09 18:19:00,72.2,56.6,29.96,ESE,113,4.0,15.0,58,0.00,,,0.00,Wunderground v.1.15,2013-06-09 22:19:00,
2013-06-09 18:25:00,72.0,56.9,29.96,ENE,78,4.0,9.0,59,0.00,,,0.00,Wunderground v.1.15,2013-06-09 22:25:00,
2013-06-09 18:31:00,72.0,57.4,29.96,East,98,3.0,3.0,60,0.00,,,0.00,Wunderground v.1.15,2013-06-09 22:31:00,
2013-06-09 18:36:00,71.8,57.2,29.96,ESE,123,4.0,8.0,60,0.00,,,0.00,Wunderground v.1.15,2013-06-09 22:36:00,
2013-06-09 18:42:00,71.6,57.0,29.95,ENE,60,4.0,7.0,60,0.00,,,0.00,Wunderground v.1.15,2013-06-09 22:42:00,
2013-06-09 18:47:00,71.5,56.9,29.95,East,82,4.0,7.0,60,0.00,,,0.00,Wunderground v.1.15,2013-06-09 22:47:00,
2013-06-09 18:53:00,71.5,57.3,29.95,ESE,117,4.0,4.0,61,0.00,,,0.00,Wunderground v.1.15,2013-06-09 22:53:00,
2013-06-09 18:59:00,71.5,56.9,29.95,East,92,3.0,7.0,60,0.00,,,0.00,Wunderground v.1.15,2013-06-09 22:59:00,
2013-06-09 19:04:00,71.6,57.0,29.95,East,101,4.0,6.0,60,0.00,,,0.00,Wunderground v.1.15,2013-06-09 23:04:00,
2013-06-09 19:10:00,71.7,57.1,29.95,NE,42,4.0,4.0,60,0.00,,,0.00,Wunderground v.1.15,2013-06-09 23:10:00,
2013-06-09 19:16:00,71.9,57.3,29.95,ESE,119,3.0,5.0,60,0.00,,,0.00,Wunderground v.1.15,2013-06-09 23:16:00,
2013-06-09 19:21:00,71.9,56.8,29.95,ESE,113,3.0,6.0,59,0.00,,,0.00,Wunderground v.1.15,2013-06-09 23:21:00,
2013-06-09 19:27:00,71.9,56.3,29.95,ESE,123,3.0,9.0,58,0.00,,,0.00,Wunderground v.1.15,2013-06-09 23:27:00,
2013-06-09 19:33:00,71.7,56.1,29.95,SE,135,3.0,5.0,58,0.00,,,0.00,Wunderground v.1.15,2013-06-09 23:33:00,
2013-06-09 19:38:00,71.6,56.0,29.95,ENE,65,4.0,5.0,58,0.00,,,0.00,Wunderground v.1.15,2013-06-09 23:38:00,
2013-06-09 19:44:00,71.5,55.9,29.95,East,88,4.0,7.0,58,0.00,,,0.00,Wunderground v.1.15,2013-06-09 23:44:00,
2013-06-09 19:49:00,71.3,55.8,29.95,NE,46,3.0,7.0,58,0.00,,,0.00,Wunderground v.1.15,2013-06-09 23:49:00,
2013-06-09 19:55:00,71.2,56.1,29.94,ESE,111,2.0,3.0,59,0.00,,,0.00,Wunderground v.1.15,2013-06-09 23:55:00,
2013-06-09 20:00:00,71.0,55.5,29.94,ENE,71,3.0,3.0,58,0.00,,,0.00,Wunderground v.1.15,2013-06-10 00:00:00,
2013-06-09 20:06:00,70.9,55.4,29.94,ESE,105,5.0,7.0,58,0.00,,,0.00,Wunderground v.1.15,2013-06-10 00:06:00,
2013-06-09 20:12:00,70.8,55.8,29.94,SSE,164,4.0,7.0,59,0.00,,,0.00,Wunderground v.1.15,2013-06-10 00:12:00,
2013-06-09 20:18:00,70.6,55.6,29.93,East,90,4.0,10.0,59,0.00,,,0.00,Wunderground v.1.15,2013-06-10 00:18:00,
2013-06-09 20:24:00,70.5,55.9,29.93,ESE,115,3.0,7.0,60,0.00,,,0.00,Wunderground v.1.15,2013-06-10 00:24:00,
2013-06-09 20:29:00,70.4,56.3,29.94,ESE,115,4.0,12.0,61,0.00,,,0.00,Wunderground v.1.15,2013-06-10 00:29:00,
2013-06-09 20:35:00,70.3,56.2,29.94,East,88,5.0,14.0,61,0.00,,,0.00,Wunderground v.1.15,2013-06-10 00:35:00,
2013-06-09 20:40:00,70.2,56.1,29.94,ESE,110,5.0,5.0,61,0.00,,,0.00,Wunderground v.1.15,2013-06-10 00:40:00,
2013-06-09 20:46:00,70.1,56.5,29.94,SE,127,3.0,5.0,62,0.00,,,0.00,Wunderground v.1.15,2013-06-10 00:46:00,
2013-06-09 20:52:00,69.9,56.7,29.93,East,86,3.0,6.0,63,0.00,,,0.00,Wunderground v.1.15,2013-06-10 00:52:00,
2013-06-09 20:57:00,69.7,56.5,29.93,ENE,76,3.0,6.0,63,0.00,,,0.00,Wunderground v.1.15,2013-06-10 00:57:00,
2013-06-09 21:03:00,69.5,56.3,29.93,WSW,256,2.0,3.0,63,0.00,,,0.00,Wunderground v.1.15,2013-06-10 01:03:00,
2013-06-09 21:08:00,69.4,56.7,29.93,ESE,105,3.0,8.0,64,0.00,,,0.00,Wunderground v.1.15,2013-06-10 01:08:00,
2013-06-09 21:13:00,69.3,56.2,29.94,SE,134,3.0,4.0,63,0.00,,,0.00,Wunderground v.1.15,2013-06-10 01:13:00,
2013-06-09 21:19:00,69.2,56.1,29.93,SE,135,3.0,10.0,63,0.00,,,0.00,Wunderground v.1.15,2013-06-10 01:19:00,
2013-06-09 21:25:00,69.1,56.0,29.94,ESE,116,5.0,5.0,63,0.00,,,0.00,Wunderground v.1.15,2013-06-10 01:25:00,
2013-06-09 21:30:00,69.0,55.9,29.93,East,100,4.0,8.0,63,0.00,,,0.00,Wunderground v.1.15,2013-06-10 01:30:00,
2013-06-09 21:36:00,68.8,55.7,29.94,SE,127,4.0,8.0,63,0.00,,,0.00,Wunderground v.1.15,2013-06-10 01:36:00,
2013-06-09 21:41:00,68.8,55.7,29.94,SSE,148,3.0,4.0,63,0.00,,,0.00,Wunderground v.1.15,2013-06-10 01:41:00,
2013-06-09 21:47:00,68.7,55.6,29.93,SE,140,4.0,9.0,63,0.00,,,0.00,Wunderground v.1.15,2013-06-10 01:47:00,
2013-06-09 21:52:00,68.5,55.4,29.93,ESE,103,4.0,5.0,63,0.00,,,0.00,Wunderground v.1.15,2013-06-10 01:52:00,
2013-06-09 21:58:00,68.4,55.3,29.93,East,97,5.0,12.0,63,0.00,,,0.00,Wunderground v.1.15,2013-06-10 01:58:00,
2013-06-09 22:03:00,68.3,55.2,29.93,SE,145,5.0,10.0,63,0.00,,,0.00,Wunderground v.1.15,2013-06-10 02:03:00,
2013-06-09 22:09:00,68.2,55.1,29.93,East,86,4.0,10.0,63,0.00,,,0.00,Wunderground v.1.15,2013-06-10 02:09:00,
2013-06-09 22:14:00,68.1,55.0,29.93,East,84,5.0,9.0,63,0.00,,,0.00,Wunderground v.1.15,2013-06-10 02:14:00,
2013-06-09 22:20:00,68.0,54.9,29.93,East,87,6.0,6.0,63,0.00,,,0.00,Wunderground v.1.15,2013-06-10 02:20:00,
2013-06-09 22:26:00,68.0,54.9,29.93,SE,129,5.0,6.0,63,0.00,,,0.00,Wunderground v.1.15,2013-06-10 02:26:00,
2013-06-09 22:31:00,67.9,54.8,29.93,ESE,107,5.0,8.0,63,0.00,,,0.00,Wunderground v.1.15,2013-06-10 02:31:00,
2013-06-09 22:37:00,67.8,54.7,29.93,SE,128,3.0,8.0,63,0.00,,,0.00,Wunderground v.1.15,2013-06-10 02:37:00,
2013-06-09 22:42:00,67.7,54.2,29.93,ESE,119,3.0,5.0,62,0.00,,,0.00,Wunderground v.1.15,2013-06-10 02:42:00,
2013-06-09 22:47:00,67.7,54.2,29.93,East,88,3.0,6.0,62,0.00,,,0.00,Wunderground v.1.15,2013-06-10 02:47:00,
2013-06-09 22:53:00,67.6,54.1,29.92,ESE,112,3.0,11.0,62,0.00,,,0.00,Wunderground v.1.15,2013-06-10 02:53:00,
2013-06-09 22:58:00,67.5,53.6,29.93,ENE,76,4.0,14.0,61,0.00,,,0.00,Wunderground v.1.15,2013-06-10 02:58:00,
2013-06-09 23:04:00,67.4,53.5,29.92,ENE,77,4.0,10.0,61,0.00,,,0.00,Wunderground v.1.15,2013-06-10 03:04:00,
2013-06-09 23:09:00,67.3,53.4,29.92,East,97,4.0,10.0,61,0.00,,,0.00,Wunderground v.1.15,2013-06-10 03:09:00,
2013-06-09 23:15:00,67.2,52.8,29.92,ESE,112,5.0,7.0,60,0.00,,,0.00,Wunderground v.1.15,2013-06-10 03:15:00,
2013-06-09 23:21:00,67.1,52.7,29.91,SE,125,5.0,5.0,60,0.00,,,0.00,Wunderground v.1.15,2013-06-10 03:21:00,
2013-06-09 23:26:00,67.0,53.1,29.91,East,84,4.0,7.0,61,0.00,,,0.00,Wunderground v.1.15,2013-06-10 03:26:00,
2013-06-09 23:32:00,66.9,53.0,29.91,ESE,107,3.0,5.0,61,0.00,,,0.00,Wunderground v.1.15,2013-06-10 03:32:00,
2013-06-09 23:37:00,66.8,52.9,29.91,East,92,3.0,5.0,61,0.00,,,0.00,Wunderground v.1.15,2013-06-10 03:37:00,
2013-06-09 23:43:00,66.7,52.8,29.91,East,101,3.0,4.0,61,0.00,,,0.00,Wunderground v.1.15,2013-06-10 03:43:00,
2013-06-09 23:49:00,66.6,52.7,29.91,East,88,4.0,9.0,61,0.00,,,0.00,Wunderground v.1.15,2013-06-10 03:49:00,
2013-06-09 23:54:00,66.5,53.1,29.91,SE,130,4.0,8.0,62,0.00,,,0.00,Wunderground v.1.15,2013-06-10 03:54:00,